When you browse on this site, cookies collect data to enhance your experience and personalize the content and advertising you see.
Visit our Privacy Policy to learn more. By continuing to use the site, you agree to this use of cookies and data.
  • In Hungary
  • List of Countries
  • For 7 days
  • Water Temperature
  • Satellite Maps
  • Weather Map
  • News
  • Weather Widgets
  • user-avatar
    Login

    Hourly Weather Stawiany

    Today, 24 May, Friday

    Time Temperature Precipitation Wind Pressure Humidity
    00:00 +12°C° 0.4 mm 4 mps 740 mmHg 95%
    01:00 +12°C° 0 mm 4 mps 740 mmHg 94%
    02:00 +12°C° 0 mm 4 mps 740 mmHg 94%
    03:00 +11°C° 0 mm 4 mps 740 mmHg 95%
    04:00 +11°C° 0 mm 4 mps 740 mmHg 95%
    05:00 +12°C° 0 mm 4 mps 740 mmHg 94%
    06:00 +12°C° 0 mm 3 mps 740 mmHg 93%
    07:00 +13°C° 0 mm 4 mps 740 mmHg 92%
    08:00 +13°C° 0.1 mm 3 mps 740 mmHg 91%
    09:00 +13°C° 0.1 mm 3 mps 740 mmHg 89%
    10:00 +14°C° 0.1 mm 3 mps 740 mmHg 87%
    11:00 +14°C° 0 mm 3 mps 739 mmHg 84%
    12:00 +16°C° 0 mm 3 mps 739 mmHg 81%
    13:00 +17°C° 0 mm 3 mps 739 mmHg 78%
    14:00 +17°C° 0 mm 3 mps 739 mmHg 77%
    15:00 +17°C° 0 mm 3 mps 739 mmHg 77%
    16:00 +18°C° 0 mm 3 mps 739 mmHg 77%
    17:00 +17°C° 0 mm 3 mps 738 mmHg 80%
    18:00 +16°C° 0 mm 3 mps 738 mmHg 83%
    19:00 +16°C° 0 mm 2 mps 738 mmHg 87%
    20:00 +15°C° 0 mm 2 mps 738 mmHg 88%
    21:00 +14°C° 0 mm 2 mps 738 mmHg 88%
    22:00 +13°C° 0 mm 2 mps 738 mmHg 89%
    23:00 +13°C° 0 mm 2 mps 738 mmHg 90%

    Tomorrow, 25 May, Saturday

    Time Temperature Precipitation Wind Pressure Humidity
    00:00 +12°C° 0 mm 2 mps 738 mmHg 91%
    01:00 +11°C° 0 mm 1 mps 738 mmHg 91%
    02:00 +10°C° 0 mm 2 mps 738 mmHg 92%
    03:00 +10°C° 0 mm 2 mps 738 mmHg 92%
    04:00 +10°C° 0 mm 2 mps 738 mmHg 93%
    05:00 +12°C° 0 mm 2 mps 738 mmHg 88%
    06:00 +14°C° 0 mm 2 mps 738 mmHg 83%
    07:00 +16°C° 0 mm 2 mps 739 mmHg 78%
    08:00 +17°C° 0 mm 3 mps 739 mmHg 70%
    09:00 +19°C° 0 mm 3 mps 739 mmHg 62%
    10:00 +20°C° 0 mm 3 mps 739 mmHg 55%
    11:00 +21°C° 0 mm 3 mps 738 mmHg 54%
    12:00 +21°C° 0 mm 3 mps 738 mmHg 53%
    13:00 +22°C° 0 mm 3 mps 738 mmHg 53%
    14:00 +22°C° 0.1 mm 4 mps 738 mmHg 57%
    15:00 +21°C° 0.1 mm 4 mps 738 mmHg 60%
    16:00 +21°C° 0.1 mm 4 mps 738 mmHg 64%
    17:00 +20°C° 0.1 mm 4 mps 738 mmHg 70%
    18:00 +18°C° 0.1 mm 3 mps 738 mmHg 76%
    19:00 +17°C° 0.1 mm 2 mps 738 mmHg 82%
    20:00 +16°C° 0 mm 2 mps 738 mmHg 84%
    21:00 +15°C° 0 mm 2 mps 738 mmHg 87%
    22:00 +14°C° 0 mm 1 mps 739 mmHg 89%
    23:00 +13°C° 0 mm 1 mps 739 mmHg 89%

    Day after tomorrow, 26 May, Sunday

    Time Temperature Precipitation Wind Pressure Humidity
    00:00 +13°C° 0 mm 1 mps 739 mmHg 89%
    01:00 +13°C° 0 mm 1 mps 739 mmHg 90%
    02:00 +13°C° 0 mm 1 mps 739 mmHg 90%
    03:00 +12°C° 0 mm 1 mps 739 mmHg 91%
    04:00 +12°C° 0 mm 1 mps 739 mmHg 92%
    05:00 +14°C° 0 mm 1 mps 739 mmHg 88%
    06:00 +15°C° 0 mm 1 mps 739 mmHg 84%
    07:00 +17°C° 0 mm 2 mps 739 mmHg 81%
    08:00 +18°C° 0.4 mm 2 mps 739 mmHg 78%
    09:00 +19°C° 0.4 mm 2 mps 739 mmHg 76%
    10:00 +20°C° 0.4 mm 3 mps 739 mmHg 74%
    11:00 +20°C° 0.4 mm 3 mps 739 mmHg 72%
    12:00 +21°C° 0.4 mm 3 mps 739 mmHg 70%
    13:00 +21°C° 0.4 mm 3 mps 738 mmHg 69%
    14:00 +21°C° 0.5 mm 3 mps 738 mmHg 69%
    15:00 +21°C° 0.5 mm 3 mps 738 mmHg 70%
    16:00 +21°C° 0.5 mm 3 mps 738 mmHg 71%
    17:00 +20°C° 0.3 mm 2 mps 738 mmHg 75%
    18:00 +19°C° 0.3 mm 2 mps 738 mmHg 79%
    19:00 +19°C° 0.3 mm 1 mps 738 mmHg 83%
    20:00 +18°C° 0 mm 1 mps 738 mmHg 85%
    21:00 +16°C° 0 mm 1 mps 738 mmHg 87%
    22:00 +15°C° 0 mm 1 mps 739 mmHg 88%
    23:00 +14°C° 0 mm 1 mps 739 mmHg 89%

    27 May, Monday

    Time Temperature Precipitation Wind Pressure Humidity
    00:00 +14°C° 0 mm 1 mps 739 mmHg 90%
    01:00 +14°C° 0 mm 1 mps 739 mmHg 90%
    02:00 +13°C° 0 mm 1 mps 739 mmHg 91%
    03:00 +13°C° 0 mm 1 mps 738 mmHg 92%
    04:00 +13°C° 0 mm 1 mps 738 mmHg 93%
    05:00 +15°C° 0 mm 1 mps 739 mmHg 89%
    06:00 +16°C° 0 mm 2 mps 739 mmHg 86%
    07:00 +18°C° 0 mm 2 mps 739 mmHg 82%
    08:00 +19°C° 0 mm 3 mps 739 mmHg 76%
    09:00 +21°C° 0 mm 3 mps 739 mmHg 71%
    10:00 +22°C° 0 mm 3 mps 738 mmHg 65%
    11:00 +24°C° 0 mm 3 mps 738 mmHg 62%
    12:00 +25°C° 0 mm 3 mps 738 mmHg 60%
    13:00 +25°C° 0 mm 3 mps 738 mmHg 57%
    14:00 +24°C° 0.4 mm 3 mps 738 mmHg 63%
    15:00 +24°C° 0.4 mm 3 mps 737 mmHg 69%
    16:00 +22°C° 0.4 mm 3 mps 737 mmHg 75%
    17:00 +21°C° 0.1 mm 3 mps 737 mmHg 78%
    18:00 +20°C° 0.1 mm 2 mps 737 mmHg 82%
    19:00 +19°C° 0.1 mm 2 mps 737 mmHg 85%
    20:00 +19°C° 0 mm 1 mps 737 mmHg 86%
    21:00 +19°C° 0 mm 1 mps 737 mmHg 87%
    22:00 +16°C° 0 mm 0 mps 737 mmHg 88%
    23:00 +18°C° 0.1 mm 1 mps 736 mmHg 89%

    28 May, Tuesday

    Time Temperature Precipitation Wind Pressure Humidity
    00:00 +16°C° 0.1 mm 1 mps 736 mmHg 91%
    01:00 +16°C° 0.1 mm 2 mps 736 mmHg 92%
    02:00 +16°C° 0.7 mm 2 mps 736 mmHg 94%
    03:00 +16°C° 0.7 mm 2 mps 735 mmHg 96%
    04:00 +16°C° 0.7 mm 2 mps 735 mmHg 97%
    05:00 +16°C° 2.1 mm 2 mps 735 mmHg 97%
    06:00 +17°C° 2.1 mm 2 mps 734 mmHg 97%
    07:00 +17°C° 2.1 mm 3 mps 734 mmHg 97%
    08:00 +19°C° 0.2 mm 3 mps 734 mmHg 92%
    09:00 +20°C° 0.2 mm 2 mps 734 mmHg 86%
    10:00 +23°C° 0.2 mm 2 mps 733 mmHg 80%
    11:00 +23°C° 0.8 mm 2 mps 733 mmHg 77%
    12:00 +24°C° 0.8 mm 2 mps 733 mmHg 75%
    13:00 +25°C° 0.8 mm 2 mps 732 mmHg 72%
    14:00 +24°C° 2.2 mm 2 mps 732 mmHg 72%
    15:00 +24°C° 2.2 mm 2 mps 732 mmHg 73%
    16:00 +23°C° 2.2 mm 1 mps 732 mmHg 74%
    17:00 +22°C° 0.2 mm 1 mps 732 mmHg 78%
    18:00 +21°C° 0.2 mm 1 mps 732 mmHg 81%
    19:00 +20°C° 0.2 mm 1 mps 732 mmHg 85%
    20:00 +19°C° 0 mm 1 mps 732 mmHg 86%
    21:00 +18°C° 0 mm 1 mps 732 mmHg 87%
    22:00 +16°C° 0 mm 1 mps 733 mmHg 88%
    23:00 +16°C° 0 mm 1 mps 732 mmHg 88%

    29 May, Wednesday

    Time Temperature Precipitation Wind Pressure Humidity
    00:00 +14°C° 0 mm 0 mps 732 mmHg 88%
    01:00 +14°C° 0 mm 0 mps 732 mmHg 89%
    02:00 +14°C° 0 mm 0 mps 733 mmHg 89%
    03:00 +14°C° 0 mm 0 mps 733 mmHg 89%
    04:00 +13°C° 0 mm 0 mps 733 mmHg 90%
    05:00 +16°C° 0 mm 1 mps 733 mmHg 86%
    06:00 +19°C° 0 mm 1 mps 734 mmHg 83%
    07:00 +20°C° 0 mm 1 mps 734 mmHg 80%
    08:00 +21°C° 0.9 mm 1 mps 734 mmHg 77%
    09:00 +21°C° 0.9 mm 2 mps 735 mmHg 75%
    10:00 +23°C° 0.9 mm 2 mps 735 mmHg 72%
    11:00 +23°C° 1.5 mm 2 mps 735 mmHg 73%
    12:00 +23°C° 1.5 mm 2 mps 735 mmHg 73%
    13:00 +23°C° 1.5 mm 2 mps 736 mmHg 74%
    14:00 +23°C° 1.1 mm 2 mps 736 mmHg 75%
    15:00 +23°C° 1.1 mm 2 mps 736 mmHg 76%
    16:00 +23°C° 1.1 mm 2 mps 736 mmHg 77%
    17:00 +21°C° 0.8 mm 2 mps 737 mmHg 81%
    18:00 +20°C° 0.8 mm 2 mps 737 mmHg 85%
    19:00 +20°C° 0.8 mm 1 mps 737 mmHg 89%
    20:00 +19°C° 0.3 mm 1 mps 738 mmHg 90%
    21:00 +18°C° 0.3 mm 1 mps 738 mmHg 91%
    22:00 +16°C° 0.3 mm 1 mps 738 mmHg 92%
    23:00 +16°C° 0 mm 1 mps 739 mmHg 93%
    Show more